Tracking 18840 objects as of 19-November-2017
HD Live streaming from Space Station
objects crossing your sky now

IRS B3

Track IRS B3 now!
10-day predictions
IRS B3 is classified as:


NORAD ID: 23827
Int'l Code: 1996-017A
Perigee: 822.0 km
Apogee: 826.0 km
Inclination: 98.7 °
Period: 101.2 minutes
Semi major axis: 7194 km
RCS: 2.718 m2 (large)
Launch date: March 21, 1996
Source: India (IND)
Launch site: SRIHARIKOTA (SRI)

Remote sensing.
aabbcc
Your satellite tracking list
Your tracking list is empty




NASA's NSSDC Master Catalog

Two Line Element Set (TLE):
1 23827U 96017A   17322.89978995 +.00000029 +00000-0 +32756-4 0  9992
2 23827 098.7389 259.2141 0002783 326.4158 033.6843 14.22528809124422
Source of the keplerian elements: AFSPC